AE7MK-13 Weather Reports


time (UTC)temp
C
wind
direction
speed
KPH
gust
KPH
rain 1hr
cm
rain 24hr
cm
rain mn
cm
humidity
%
barometer
mb
20260509005003 13 295 29.0 45.1 0.00 0.00 0.00 27 1017.0
20260509004003 14 302 20.9 41.8 0.00 0.00 0.00 26 1017.1
20260509003214 14 304 25.7 38.6 0.00 0.00 0.00 28 1017.1
20260509002003 14 304 24.1 40.2 0.00 0.00 0.00 27 1016.8
20260509001003 14 302 20.9 33.8 0.00 0.00 0.00 27 1016.6
20260509000214 14 303 19.3 30.6 0.00 0.00 0.00 26 1016.7
20260508235003 13 298 24.1 37.0 0.00 0.00 0.00 26 1016.7
20260508234213 13 291 24.1 37.0 0.00 0.00 0.00 25 1016.7
20260508233003 13 296 29.0 45.1 0.00 0.00 0.00 22 1016.5
20260508232003 13 299 25.7 38.6 0.00 0.00 0.00 23 1016.6
20260508231003 13 288 22.5 40.2 0.00 0.00 0.00 21 1016.6
20260508230005 14 287 25.7 37.0 0.00 0.00 0.00 22 1016.5
20260508225213 14 282 27.4 41.8 0.00 0.00 0.00 21 1016.3
20260508224003 14 292 24.1 33.8 0.00 0.00 0.00 22 1016.2
20260508223003 13 289 25.7 37.0 0.00 0.00 0.00 20 1016.1
20260508222003 15 285 29.0 43.5 0.00 0.00 0.00 18 1016.2
20260508221003 15 277 30.6 41.8 0.00 0.00 0.00 16 1016.0
20260508220213 15 275 24.1 41.8 0.00 0.00 0.00 17 1016.1
20260508215003 15 295 20.9 32.2 0.00 0.00 0.00 20 1016.0
20260508214212 15 292 19.3 32.2 0.00 0.00 0.00 20 1015.9
20260508213004 15 291 17.7 25.7 0.00 0.00 0.00 21 1015.8
20260508212003 15 298 17.7 30.6 0.00 0.00 0.00 19 1015.8
20260508211003 15 303 17.7 32.2 0.00 0.00 0.00 21 1015.8
20260508210003 15 290 17.7 25.7 0.00 0.00 0.00 18 1015.7
20260508205212 15 298 20.9 30.6 0.00 0.00 0.00 20 1015.6
20260508204003 15 296 20.9 33.8 0.00 0.00 0.00 21 1015.6
20260508203003 15 299 19.3 33.8 0.00 0.00 0.00 21 1015.6
20260508202003 15 296 17.7 32.2 0.00 0.00 0.00 22 1015.7
20260508201003 15 298 17.7 24.1 0.00 0.00 0.00 24 1015.6
20260508200214 15 284 14.5 20.9 0.00 0.00 0.00 25 1015.6
20260508195004 14 275 19.3 30.6 0.00 0.00 0.00 26 1015.4
20260508194214 14 266 19.3 30.6 0.00 0.00 0.00 24 1015.4
20260508193003 15 276 16.1 27.4 0.00 0.00 0.00 24 1015.0
20260508192003 15 256 16.1 27.4 0.00 0.00 0.00 25 1015.2
20260508191003 14 253 16.1 27.4 0.00 0.00 0.00 28 1015.0
20260508190003 14 261 17.7 25.7 0.00 0.00 0.00 26 1015.1
20260508185213 14 272 17.7 29.0 0.00 0.00 0.00 25 1015.1
20260508184003 15 266 17.7 30.6 0.00 0.00 0.00 25 1015.2
20260508183213 15 261 14.5 30.6 0.00 0.00 0.00 23 1015.2
20260508182003 14 266 16.1 27.4 0.00 0.00 0.00 21 1015.3
20260508181003 13 243 20.9 30.6 0.00 0.00 0.00 22 1015.2
20260508180005 13 242 17.7 29.0 0.00 0.00 0.00 24 1015.2
20260508175003 13 265 12.9 20.9 0.00 0.00 0.00 23 1015.2
20260508174003 13 274 14.5 20.9 0.00 0.00 0.00 22 1015.1
20260508173003 12 274 14.5 24.1 0.00 0.00 0.00 26 1015.1
20260508172003 12 250 17.7 22.5 0.00 0.00 0.00 25 1014.9
20260508171003 12 243 17.7 24.1 0.00 0.00 0.00 22 1014.9
20260508170003 12 236 16.1 22.5 0.00 0.00 0.00 21 1015.0
20260508165004 12 244 12.9 20.9 0.00 0.00 0.00 19 1014.9
20260508164003 12 254 8.0 14.5 0.00 0.00 0.00 19 1014.9
20260508163003 12 251 12.9 19.3 0.00 0.00 0.00 18 1014.8
20260508162003 12 243 14.5 20.9 0.00 0.00 0.00 19 1014.8
20260508161212 12 233 12.9 19.3 0.00 0.00 0.00 18 1014.8
20260508160004 12 251 4.8 9.7 0.00 0.00 0.00 19 1014.5
20260508155003 12 248 8.0 12.9 0.00 0.00 0.00 18 1014.6
20260508154003 12 243 9.7 14.5 0.00 0.00 0.00 17 1014.5
20260508153003 12 253 8.0 12.9 0.00 0.00 0.00 19 1014.6
20260508152003 12 257 6.4 12.9 0.00 0.00 0.00 21 1014.5
20260508151003 12 264 3.2 9.7 0.00 0.00 0.00 27 1014.5
20260508150004 12 269 0.0 8.0 0.00 0.00 0.00 26 1014.4
20260508145003 12 271 3.2 6.4 0.00 0.00 0.00 25 1014.4
20260508144003 12 264 1.6 8.0 0.00 0.00 0.00 25 1014.4
20260508143003 12 299 3.2 9.7 0.00 0.00 0.00 28 1014.4
20260508142214 12 309 1.6 6.4 0.00 0.00 0.00 23 1014.2
20260508141003 12 0 0.0 0.0 0.00 0.00 0.00 28 1014.2
20260508140003 12 308 0.0 6.4 0.00 0.00 0.00 25 1014.2
20260508135003 12 309 8.0 16.1 0.00 0.00 0.00 21 1014.3
20260508134003 12 309 8.0 14.5 0.00 0.00 0.00 19 1014.1
20260508133003 12 307 9.7 14.5 0.00 0.00 0.00 19 1014.0
20260508132003 12 311 4.8 14.5 0.00 0.00 0.00 21 1013.8
20260508131003 11 318 3.2 12.9 0.00 0.00 0.00 23 1013.7
20260508130003 10 337 0.0 4.8 0.00 0.00 0.00 34 1013.8
20260508125213 10 0 0.0 0.0 0.00 0.00 0.00 39 1014.0
20260508124213 10 338 3.2 6.4 0.00 0.00 0.00 36 1014.0
20260508123003 10 324 4.8 6.4 0.00 0.00 0.00 36 1014.0
20260508122003 10 321 4.8 8.0 0.00 0.00 0.00 37 1014.0
20260508121003 9 339 6.4 6.4 0.00 0.00 0.00 41 1014.1
20260508120004 9 339 4.8 6.4 0.00 0.00 0.00 40 1014.2
20260508115003 9 336 4.8 8.0 0.00 0.00 0.00 40 1014.3
20260508114003 9 334 6.4 8.0 0.00 0.00 0.00 41 1014.2
20260508113003 10 330 1.6 8.0 0.00 0.00 0.00 38 1014.1
20260508112213 10 330 1.6 6.4 0.00 0.00 0.00 36 1014.2
20260508111003 10 330 4.8 6.4 0.00 0.00 0.00 39 1014.2
20260508110003 9 330 4.8 8.0 0.00 0.00 0.00 40 1014.2
20260508105003 10 329 3.2 6.4 0.00 0.00 0.00 40 1014.2
20260508104003 11 0 0.0 0.0 0.00 0.00 0.00 36 1014.1
20260508103004 11 329 3.2 6.4 0.00 0.00 0.00 36 1014.1
20260508102003 11 325 3.2 6.4 0.00 0.00 0.00 36 1014.1
20260508101003 11 311 3.2 8.0 0.00 0.00 0.00 37 1014.1
20260508100004 11 300 6.4 8.0 0.00 0.00 0.00 35 1014.1
20260508095003 11 293 4.8 9.7 0.00 0.00 0.00 36 1014.2
20260508094003 12 288 8.0 9.7 0.00 0.00 0.00 33 1014.2
20260508093003 12 286 6.4 9.7 0.00 0.00 0.00 32 1014.3
20260508092003 12 286 6.4 9.7 0.00 0.00 0.00 33 1014.3
20260508091003 12 290 6.4 9.7 0.00 0.00 0.00 35 1014.4
20260508090003 12 291 6.4 11.3 0.00 0.00 0.00 35 1014.4
20260508085003 11 316 4.8 9.7 0.00 0.00 0.00 39 1014.4
20260508084214 11 319 4.8 9.7 0.00 0.00 0.00 39 1014.4
20260508083003 12 299 6.4 9.7 0.00 0.00 0.00 36 1014.6
20260508082214 12 294 6.4 9.7 0.00 0.00 0.00 35 1014.5
20260508081004 12 287 8.0 11.3 0.00 0.00 0.00 35 1014.6
20260508080004 12 286 8.0 11.3 0.00 0.00 0.00 35 1014.7
20260508075003 12 289 6.4 9.7 0.00 0.00 0.00 36 1014.7
20260508074003 11 301 4.8 8.0 0.00 0.00 0.00 39 1014.8
20260508073213 11 299 4.8 8.0 0.00 0.00 0.00 40 1014.8
20260508072213 12 298 4.8 8.0 0.00 0.00 0.00 39 1014.8
20260508071003 12 308 4.8 8.0 0.00 0.00 0.00 39 1014.9
20260508070003 12 298 3.2 6.4 0.00 0.00 0.00 40 1014.9
20260508065003 12 288 6.4 9.7 0.00 0.00 0.00 40 1014.9
20260508064213 12 284 8.0 11.3 0.00 0.00 0.00 42 1014.9
20260508063003 12 286 8.0 11.3 0.00 0.00 0.00 43 1015.1
20260508062003 12 285 8.0 11.3 0.00 0.00 0.00 44 1015.1
20260508061003 11 307 4.8 9.7 0.00 0.00 0.00 51 1015.1
20260508060003 11 323 4.8 6.4 0.00 0.00 0.00 57 1015.2
20260508055003 10 323 4.8 6.4 0.00 0.00 0.00 58 1015.2
20260508054003 11 328 6.4 8.0 0.00 0.00 0.00 58 1015.2
20260508053003 11 335 4.8 8.0 0.00 0.00 0.00 55 1015.3
20260508052003 11 0 0.0 0.0 0.00 0.00 0.00 54 1015.4
20260508051003 12 335 1.6 4.8 0.00 0.00 0.00 53 1015.3
20260508050003 12 335 0.0 4.8 0.00 0.00 0.00 53 1015.4
20260508045003 12 0 0.0 0.0 0.00 0.00 0.00 51 1015.4
20260508044214 12 0 0.0 0.0 0.00 0.00 0.00 50 1015.4
20260508043003 12 0 0.0 0.0 0.00 0.00 0.00 50 1015.4
20260508042003 13 0 0.0 0.0 0.00 0.00 0.00 49 1015.4
20260508041214 13 0 0.0 0.0 0.00 0.00 0.00 48 1015.4
20260508040004 13 0 0.0 0.0 0.00 0.00 0.00 47 1015.3
20260508035003 14 0 0.0 0.0 0.00 0.00 0.00 45 1015.1
20260508034214 15 0 0.0 0.0 0.00 0.00 0.00 45 1015.2
20260508033003 15 0 0.0 0.0 0.00 0.00 0.00 44 1015.2
20260508032003 15 0 0.0 0.0 0.00 0.00 0.00 43 1015.1
20260508031003 16 0 0.0 0.0 0.00 0.00 0.00 43 1015.0
20260508030213 16 152 1.6 8.0 0.00 0.00 0.00 43 1015.0
20260508025003 16 163 4.8 9.7 0.00 0.00 0.00 42 1014.9
20260508024003 16 162 4.8 11.3 0.00 0.00 0.00 42 1015.1
20260508023003 17 154 6.4 11.3 0.00 0.00 0.00 40 1015.0
20260508022003 17 153 6.4 11.3 0.00 0.00 0.00 40 1014.9
20260508021003 17 158 8.0 11.3 0.00 0.00 0.00 39 1014.9
20260508020003 17 150 6.4 12.9 0.00 0.00 0.00 39 1014.8
20260508015004 17 148 6.4 16.1 0.00 0.00 0.00 38 1015.0
20260508014003 18 146 8.0 14.5 0.00 0.00 0.00 38 1014.9
20260508013003 18 143 6.4 12.9 0.00 0.00 0.00 37 1014.9
20260508012003 18 153 4.8 12.9 0.00 0.00 0.00 37 1015.0
20260508011003 19 170 8.0 16.1 0.00 0.00 0.00 35 1014.9